weather.gov     
National Weather Service

Terminal Aerodrome Forecast
NWS Homepage
This page is being discontinued on March 12, 2014.
The same data is available at this site. Please update your bookmarks.
Thank you, and we apologize for the inconvenience.
Please send an email to SR-SRH.Webmaster@noaa.gov with any concerns.


Current Version
Previous Version:    01  02  03  04  05  06  07  08  09  10  11  12  13  14  15  16  17  18  19  20  21  22  23  24  25  26  27  28  29  30  
   31  32  33  
[Printable]
546
FTUS42 TJSJ 172300
TAFJPS
TAF
TJPS 172334Z 1800/1824 VRB04KT P6SM FEW025 SCT050 SCT070
     FM180300 06004KT P6SM VCSH FEW025 SCT050
     FM181330 12012KT P6SM SCT030 SCT070
     FM182300 09008KT P6SM SCT028 SCT080
      AMD NOT SKED TIL 180300=


U.S. Dept. of Commerce
NOAA National Weather Service
1325 East West Highway
Silver Spring, MD 20910
E-mail: w-nws.webmaster@noaa.gov
Page last modified: May 16, 2007
NATIONAL WEATHER SERVICE: for Safety, for Work, for Fun - FOR LIFE